Zurück zum Katalog

SL-12 R/B(2)

AktivMEO
NORAD 13610·ROCKET BODY·🇷🇺 Russia

Gestartet Oct 12, 1982 von Baikonur Cosmodrome

Loading…

Nächste Überflüge (nächste 24 Stunden)

TLE

AktuellSource: Space-Track

Epoche: Sep 10, 2026, 04:38 UTC

1 13610U 82100H   26253.19318735  .00000005  00000-0  00000-0 0  9992
2 13610  64.9419  62.7860 0007207 205.3889 331.7929  2.14005622343608

Verfolge SL-12 R/B(2) in Echtzeit mit AllMySat

Download on the App Store